This is the latest recevied weather packets stored in our database for station/object N5KJT. If no packets are shown the sender has not sent any weather packets the latest 10 day(s).
| Time | Temp. | Humidity | Pressure | Rain* | Wind** | Luminosity | Snow |
|---|---|---|---|---|---|---|---|
| 1788108616 | 27.22° C | 38% | 1025.9 hPa | 0 mm | - | 886 W/m² | - |
| 1788108316 | 27.22° C | 38% | 1026 hPa | 0 mm | - | 834 W/m² | - |
| 1788108016 | 27.22° C | 39% | 1026 hPa | 0 mm | - | 775 W/m² | - |
| 1788107716 | 27.22° C | 39% | 1026 hPa | 0 mm | - | 740 W/m² | - |
| 1788107416 | 27.22° C | 40% | 1026.2 hPa | 0 mm | - | 700 W/m² | - |
| 1788107115 | 26.67° C | 40% | 1026.2 hPa | 0 mm | - | 659 W/m² | - |
| 1788106816 | 26.67° C | 41% | 1026.3 hPa | 0 mm | - | 550 W/m² | - |
| 1788106515 | 26.67° C | 41% | 1026.3 hPa | 0 mm | - | 539 W/m² | - |
| 1788106215 | 26.67° C | 42% | 1026.2 hPa | 0 mm | - | 515 W/m² | - |
| 1788105916 | 26.67° C | 42% | 1026.2 hPa | 0 mm | - | 552 W/m² | - |
| 1788105615 | 26.67° C | 42% | 1026.2 hPa | 0 mm | - | 581 W/m² | - |
| 1788105315 | 26.11° C | 42% | 1026.2 hPa | 0 mm | - | 613 W/m² | - |
| 1788105016 | 26.11° C | 42% | 1026.1 hPa | 0 mm | - | 613 W/m² | - |
| 1788104715 | 26.11° C | 42% | 1026 hPa | 0 mm | - | 616 W/m² | - |
| 1788104416 | 25.56° C | 43% | 1026 hPa | 0 mm | - | 615 W/m² | - |
| 1788104115 | 25° C | 45% | 1026 hPa | 0 mm | - | 613 W/m² | - |
| 1788103815 | 24.44° C | 48% | 1026.1 hPa | 0 mm | - | 608 W/m² | - |
| 1788103515 | 23.89° C | 51% | 1026 hPa | 0 mm | - | 598 W/m² | - |
| 1788103215 | 23.33° C | 54% | 1026.1 hPa | 0 mm | - | 591 W/m² | - |
| 1788102916 | 23.33° C | 55% | 1026 hPa | 0 mm | - | 580 W/m² | - |
| 1788102615 | 22.78° C | 55% | 1026 hPa | 0 mm | - | 327 W/m² | - |
| 1788102315 | 22.22° C | 57% | 1026 hPa | 0 mm | - | 495 W/m² | - |
| 1788102016 | 22.22° C | 59% | 1026.1 hPa | 0 mm | - | 503 W/m² | - |
| 1788101715 | 21.67° C | 60% | 1026.1 hPa | 0 mm | - | 437 W/m² | - |
| 1788101415 | 21.11° C | 61% | 1026.2 hPa | 0 mm | - | 383 W/m² | - |
* Rain latest hour (hover to see other rain measurements)
** Current wind speed in m/s (hover to see current wind gust speed)